Orangeburg, SC

7:18 PM EST on December 03, 2016 (GMT -0500)
Orangeburg Municipal

Weather History for KOGB - June, 2013

Change the Weather History Date:

Monday, June 17, 2013

  Actual Average Record
Temperature  
Mean Temperature 78 °F 79 °F  
Max Temperature 89 °F 89 °F 103 °F (1981)
Min Temperature 67 °F 68 °F 52 °F (1979)
Degree Days  
Heating Degree Days 0 0  
Month to date heating degree days 0 0  
Since 1 June heating degree days 0 0  
Since 1 July heating degree days 2181 2332  
Cooling Degree Days 13 14  
Month to date cooling degree days 236 207  
Year to date cooling degree days 498 510  
Since 1 June cooling degree days 236 207  
Growing Degree Days 28 (Base 50)    
Moisture  
Dew Point 69 °F    
Average Humidity 83    
Maximum Humidity 93    
Minimum Humidity 59    
Precipitation  
Precipitation 0.56 in 0.19 in 1.10 in (1971)
Month to date precipitation 5.76 2.84  
Year to date precipitation 23.14 20.46  
Sea Level Pressure  
Sea Level Pressure 30.03 in    
Wind  
Wind Speed 4 mph (SW)    
Max Wind Speed 23 mph    
Max Gust Speed 32 mph    
Visibility 8 miles    
Events Rain    
T = Trace of Precipitation, MM = Missing Value Source: NWS Daily Summary

Daily Weather History Graph

Daily Weather History Graph

Search for Another Location

Airport or City:

Trip Planner

Search our weather history database for the weather conditions in past years. The results will help you decide how hot, cold, wet, or windy it might be!

Date:

Astronomy

Jun. 17, 2013 Rise Set
Actual Time 6:13 AM EDT 8:35 PM EDT
Civil Twilight 5:44 AM EDT 9:04 PM EDT
Nautical Twilight 5:08 AM EDT 9:40 PM EDT
Astronomical Twilight 4:30 AM EDT 10:18 PM EDT
Moon 2:27 PM EDT (6/17) 1:32 AM EDT (6/17)
Length of Visible Light 15h 20m
Length of Day
14h 22m
First Quarter, 60% of the Moon is Illuminated
Jun 17
First Quarter
Jun 23
Full
Jun 30
Last Quarter
Jul 8
New
Jul 15
First Quarter

Hourly Weather History & Observations

Time (EDT) Temp. Heat Index Dew Point Humidity Pressure Visibility Wind Dir Wind Speed Gust Speed Precip Events Conditions
12:53 AM 71.1 °F - 64.9 °F 81% 30.09 in 10.0 mi Calm Calm - N/A   Clear
1:53 AM 70.0 °F - 64.9 °F 84% 30.08 in 10.0 mi SSW 3.5 mph - N/A   Clear
2:53 AM 69.1 °F - 64.9 °F 87% 30.07 in 10.0 mi Calm Calm - N/A   Clear
3:53 AM 68.0 °F - 64.9 °F 90% 30.07 in 10.0 mi Calm Calm - N/A   Clear
4:53 AM 68.0 °F - 64.9 °F 90% 30.07 in 10.0 mi Calm Calm - N/A   Clear
5:53 AM 68.0 °F - 64.9 °F 90% 30.07 in 10.0 mi Calm Calm - N/A   Mostly Cloudy
6:53 AM 69.1 °F - 64.9 °F 87% 30.07 in 10.0 mi Calm Calm - N/A   Clear
7:53 AM 70.0 °F - 66.0 °F 87% 30.08 in 10.0 mi Calm Calm - N/A   Scattered Clouds
8:53 AM 73.0 °F - 66.9 °F 81% 30.07 in - North - - N/A   Unknown
9:53 AM 75.0 °F - 68.0 °F 79% 30.06 in 2.5 mi WSW 6.9 mph - 0.05 in Rain Heavy Rain
10:08 AM 73.4 °F - 69.8 °F 88% 30.06 in 10.0 mi Calm Calm - 0.01 in Rain Light Rain
10:53 AM 77.0 °F - 71.1 °F 82% 30.05 in 10.0 mi SW 4.6 mph - 0.01 in   Overcast
11:53 AM 82.9 °F 88.0 °F 72.0 °F 69% 30.05 in 10.0 mi SW 9.2 mph - 0.00 in   Partly Cloudy
12:05 PM 82.4 °F 87.2 °F 71.6 °F 70% 30.06 in 10.0 mi SW 10.4 mph - N/A   Mostly Cloudy
12:48 PM 82.4 °F 87.2 °F 71.6 °F 70% 30.04 in 10.0 mi SW 5.8 mph - N/A   Scattered Clouds
12:53 PM 82.9 °F 88.8 °F 73.0 °F 72% 30.04 in 10.0 mi SSW 9.2 mph - N/A   Scattered Clouds
1:53 PM 84.9 °F 90.7 °F 72.0 °F 65% 30.03 in 10.0 mi Variable 6.9 mph - N/A   Mostly Cloudy
2:53 PM 88.0 °F 93.8 °F 71.1 °F 57% 30.00 in 10.0 mi West 8.1 mph - N/A   Partly Cloudy
3:53 PM 88.0 °F 93.8 °F 71.1 °F 57% 29.96 in 10.0 mi South 6.9 mph - N/A   Scattered Clouds
4:53 PM 81.0 °F 84.1 °F 69.1 °F 67% 29.97 in 10.0 mi SSW 6.9 mph - N/A   Mostly Cloudy
5:25 PM 71.6 °F - 69.8 °F 94% 30.02 in 1.5 mi WNW 16.1 mph 28.8 mph 0.12 in Rain Heavy Rain
5:28 PM 71.6 °F - 69.8 °F 94% 30.02 in 0.8 mi WNW 11.5 mph 28.8 mph 0.24 in Rain Heavy Rain
5:39 PM 71.6 °F - 68.0 °F 88% 30.01 in 1.0 mi Variable 3.5 mph - 0.41 in Rain Heavy Rain
5:46 PM 71.6 °F - 68.0 °F 88% 29.99 in 2.5 mi Calm Calm - 0.42 in Rain Rain
5:48 PM 71.6 °F - 68.0 °F 88% 29.99 in 4.0 mi Calm Calm - 0.43 in Rain Light Rain
5:53 PM 72.0 °F - 68.0 °F 87% 29.98 in 6.0 mi Calm Calm - 0.43 in Rain Light Rain
6:53 PM 73.9 °F - 71.1 °F 91% 30.01 in 8.0 mi SW 4.6 mph - 0.01 in Rain Light Rain
7:53 PM 73.9 °F - 72.0 °F 93% 30.00 in 10.0 mi SSW 6.9 mph - 0.01 in   Partly Cloudy
8:53 PM 73.9 °F - 71.1 °F 91% 29.99 in 10.0 mi South 3.5 mph - N/A   Overcast
9:53 PM 73.0 °F - 71.1 °F 93% 30.01 in 10.0 mi Calm Calm - N/A   Mostly Cloudy
10:53 PM 73.9 °F - 70.0 °F 87% 30.03 in 10.0 mi WSW 8.1 mph 17.3 mph N/A   Overcast
11:04 PM 73.4 °F - 69.8 °F 88% 30.02 in 10.0 mi SSW 5.8 mph - N/A   Mostly Cloudy
11:53 PM 72.0 °F - 69.1 °F 91% 30.03 in 9.0 mi SSW 5.8 mph - 0.02 in Rain Light Rain